Location: Firdgum
(53.2488°N, 5.5615°E)
Time: 00:02:00
(UTC+00:00)

ATLAS 5 CENTAUR R/B - Pass Details

Date: 08 December 2019
Orbit: 550 x 1109 km, 63.4° (Epoch: 17 January)

Event Time Altitude Azimuth Distance (km) Brightness Sun altitude
Exits shadow 05:01:32 56° 316° (NW) 789 1.7 -22.1°
Maximum altitude 05:01:42 56° 326° (NW) 789 1.8 -22.1°
Drops below altitude 10° 05:06:43 10° 45° (NE) 2,259 4.9 -21.3°
Sets 05:09:21 0° 50° (NE) 3,284 5.8 -20.9°
